Weather in Bersenevka

Russia / Republic of Mordovia     54°12′28″N   45°05′21″E
temp.,
°C
wind,
m/s
gust,
m/s
humid.,
%
clouds,
%
prec.,
mm/h
press.,
hPa
HPBL,
m
28 february, sun
sun2800:00−17nnw499697 0.0 1010204
03:00−18nw489777 0.0 1012161
06:00−20nnw369843 0.0 1013110
09:00−18nnw469539 0.0 1014230
12:00−15nnw469159 0.0 1014348
15:00−13nnw478974 0.0 1015462
18:00−16nnw239484 0.0 101622
21:00−18nnw229549 0.0 101920
1 march, mon
mon100:00−19nw22970 0.0 102020
03:00−19nw22990 0.0 102220
06:00−20nw22980 0.0 102320
09:00−16wnw23940 0.0 1024101
12:00−11w239052 0.0 1024264
15:00−9wsw469376 0.0 1023372
18:00−12sw479698 0.0 1021130
21:00−8wsw5109599 0.1 1019335
2 march, tue
tue200:00−5sw61293100 0.1 1015415
03:00−3wsw81595100 0.8 1011610
06:00−2wsw81695100 1.0 1007681
09:000wsw71297100 1.7 1004798
12:000wnw610100100 1.1 1002616
15:000nw6109198 1.4 1002842
18:00−1nw6138896 0.4 1003583
21:00−4wnw5119295 0.5 1004294
3 march, wed
wed300:00−3nw61195100 0.3 1004467
03:00−4nw5109599 0.4 1005476
06:00−5wnw5119598 0.3 1005432
09:00−5nw6119393 0.5 1007610
12:00−4nw7109199 0.3 1008758
15:00−4nw71194100 0.6 1010836
18:00−5nnw61292100 0.6 1012737
21:00−7nw4119499 0.6 1015388
4 march, thu
thu400:00−11wnw479692 0.1 1015118
03:00−12w479573 0.1 1016105
06:00−11wsw499751 0.0 1016172
09:00−6wsw6129372 0.1 1014415
12:00−3wsw8149098 0.0 1011623
15:00−1wsw9158697 0.0 1009775
18:00−2wsw81788100 0.0 1007691
21:00−3wsw9188898 0.0 1006677